Location: Santiago
(33.4378°S, 70.6505°W)
Time: 15:26:36
(UTC+00:00)

ISS - Pass Details

Date: 09 April 2024
Orbit: 410 x 417 km, 51.6° (Epoch: 25 April)

Event Time Altitude Azimuth Distance (km) Brightness Sun altitude
Exits shadow 10:20:03 12° 285° (WNW) 1,395 -1.7 -9.3°
Maximum altitude 10:21:08 13° 306° (NW) 1,311 -1.7 -9.1°
Drops below altitude 10° 10:22:50 10° 337° (NNW) 1,491 -1.2 -8.7°
Sets 10:25:44 0° 5° (N) 2,339 0.2 -8.1°
